Regional Weather Roundup
Issued by NWS

Home | Current Version | Previous Version | Text Only | Print | Product List | Glossary Off
Versions: 1 2 3 4 5 6 7 8 9 10 11 12 13 14 15 16 17 18 19 20 21 22 23 24 25 26 27 28 29 30 31 32 33 34 35 36 37 38 39 40 41 42 43 44 45 46 47 48 49 50

000
ASUS43 KLMK 290902
RWRKY
KENTUCKY REGIONAL WEATHER ROUNDUP
NATIONAL WEATHER SERVICE LOUISVILLE KY
500 AM EDT TUE JUL 29 2014

NOTE "FAIR" INDICATES FEW OR NO CLOUDS BELOW 12,000 FEET
WITH NO SIGNIFICANT WEATHER AND/OR OBSTRUCTIONS TO VISIBILITY.

KYZ001>023-026-027-061>063-070>075-291000-
WESTERN AND SOUTH CENTRAL KENTUCKY

CITY           SKY/WX    TMP DP  RH WIND       PRES   REMARKS
PADUCAH        CLEAR     58  54  86 CALM      30.09R
HENDERSON      CLEAR     54  48  82 CALM      30.07S
OWENSBORO      CLEAR     56  50  80 CALM      30.08R
HOPKINSVILLE   PTCLDY    59  53  80 N5        30.06S
BOWLING GREEN  CLEAR     60  52  74 NW3       30.05S
GLASGOW        CLEAR     56  51  81 N6        30.04S
$$

KYZ024-025-028>034-038-045-046-053-291000-
NORTH CENTRAL KENTUCKY

CITY           SKY/WX    TMP DP  RH WIND       PRES   REMARKS
LOUISVILLE/SDF PTCLDY    58  48  69 N9        30.03S
LOUISVILLE/LOU CLEAR     56  48  74 N6        30.04S
FORT KNOX      CLEAR     52  48  87 W2        30.04R
$$

KYZ035>037-039>044-047>052-055>060-089>105-291000-
NORTHEAST KENTUCKY

CITY           SKY/WX    TMP DP  RH WIND       PRES   REMARKS
LEXINGTON      CLEAR     54  50  86 NW3       30.02S
COVINGTON      PTCLDY    53  48  83 NW6       30.01S
FRANKFORT      CLEAR     53  49  86 NW6       30.02R
$$

KYZ054-064>069-076>088-106>120-291000-
SOUTHEAST KENTUCKY

CITY           SKY/WX    TMP DP  RH WIND       PRES   REMARKS
JACKSON        CLEAR     57  54  89 NW5       30.00S
LONDON         CLOUDY    61  54  77 N5        30.02R
SOMERSET       CLOUDY    61  55  82 N6        30.03R
MIDDLESBORO    FOG       58  58 100 CALM      30.01S VSB 3/4
MONTICELLO     PTSUNNY   62  58  87 CALM      30.04R
$$




USA.gov is the U.S. government's official web portal to all federal, state and local government web resources and services.